Regional Weather Roundup
Issued by NWS Mt. Holly, NJ

Home | Current Version | Previous Version | Text Only | Print | Product List | Glossary On
Versions: 1 2 3 4 5 6 7 8 9 10 11 12 13 14 15 16 17 18 19 20 21 22 23 24 25 26 27 28 29 30 31 32 33 34 35 36 37 38 39 40 41 42 43 44 45 46 47 48 49 50
000
ASUS41 KPHI 231611
RWRPHI

REGIONAL WEATHER ROUNDUP
NATIONAL WEATHER SERVICE MOUNT HOLLY NJ
1200 PM EDT SAT MAY 23 2015

NOTE:  "FAIR" INDICATES FEW OR NO CLOUDS BELOW 12,000 FEET WITH NO
SIGNIFICANT WEATHER AND/OR OBSTRUCTIONS TO VISIBILITY.

 * = STATION DOES NOT REPORT PRECIPITATION (E.G. RAIN, SNOW, ETC.)
        OR FOG.

NJZ015>026-231700-
SOUTHERN NEW JERSEY

CITY           SKY/WX    TMP DP  RH WIND       PRES   REMARKS
POMONA         SUNNY     62  28  27 VRB5G18   30.44S
RIO GRANDE*    SUNNY     61  30  31 W7        30.47S
MILLVILLE      SUNNY     61  29  29 NW9G16    30.45S
WRIGHTSTOWN    SUNNY     60  27  28 NW6       30.42S
MOUNT HOLLY    SUNNY     60  26  27 N6        30.45S
TRENTON        SUNNY     59  26  28 VRB7      30.44S

$$
NJZ001>014-231700-
NORTHERN NEW JERSEY

CITY           SKY/WX    TMP DP  RH WIND       PRES   REMARKS
SUSSEX         SUNNY     57  25  29 VRB5      30.43F
ANDOVER*         N/A     58  27  30 MISG      30.42F
MORRISTOWN     MOSUNNY   59  25  27 W9G17     30.44S
NEWARK         MOSUNNY   61  23  23 NW10G20   30.42F
TETERBORO      SUNNY     59  26  28 VRB6G16   30.41F
CALDWELL       SUNNY     58  23  26 CALM      30.42F
SOMERVILLE     SUNNY     60  24  25 N9        30.41F
ALLAIRE*       SUNNY     61  28  29 W9G16     30.43S
TOMS RIVER*    SUNNY    N/A N/A N/A NW14G24   30.43S

$$
PAZ043-044-047-054-055-060>062-066>071-231700-
EASTERN PENNSYLVANIA

CITY           SKY/WX    TMP DP  RH WIND       PRES   REMARKS
PHILADELPHIA   MOSUNNY   61  25  25 VRB7      30.46S
NORTH PHILA    SUNNY     62  22  21 N8        30.46S
BLUE BELL      SUNNY     61  27  27 W5        30.45S
DOYLESTOWN     SUNNY     58  23  26 VRB7      30.43F
QUAKERTOWN*    SUNNY     57  27  30 W5        30.45S
POTTSTOWN      SUNNY     59  28  30 VRB7      30.46S
LANCASTER      SUNNY     58  30  34 VRB3      30.45F
COATESVILLE    SUNNY     57  28  33 NW8       30.46S
READING        SUNNY     59  26  28 VRB3      30.44S
ALLENTOWN      SUNNY     59  24  26 N5        30.44F
MOUNT POCONO   SUNNY     52  20  28 W8G17     30.41S
HAZLETON       SUNNY     52  27  37 NW6       30.45S
WILKES BARRE   SUNNY     57  23  26 W9        30.43F

$$
DEZALL-MDZ008-012-015-019-020-231700-
DELAWARE AND EASTERN MARYLAND

CITY           SKY/WX    TMP DP  RH WIND       PRES   REMARKS
WILMINGTON     SUNNY     61  32  33 W6        30.46S
DOVER          SUNNY     61  37  40 VRB1      30.43S
GEORGETOWN     SUNNY     64  33  31 VRB3      30.46S
EASTON         MOSUNNY   64  32  29 CALM      30.50S
PATUXENT       MOSUNNY   64  33  31 NE9       30.47S
OCEAN CITY     SUNNY     60  42  51 E12       30.46S
WALLOPS ISLAND SUNNY     64  43  46 E10       30.46F
CAMBRIDGE      SUNNY     64  30  27 NW5       30.46S
SALISBURY      SUNNY     65  30  27 NW8       30.46S

$$
PAZ001-021-NYZ056-072-MDZ011-DCZ001-231700-
OTHER NEARBY LOCATIONS

CITY           SKY/WX    TMP DP  RH WIND       PRES   REMARKS
HARRISBURG     MOSUNNY   60  30  32 W10       30.45F
STATE COLLEGE  SUNNY     59  28  31 W5        30.44F
WILLIAMSPORT   SUNNY     57  26  30 SW9       30.44F
BINGHAMTON     SUNNY     50  27  40 W9G18     30.41S
NEW YORK CITY  SUNNY     60  22  23 VRB5      30.44F
BALTIMORE      MOSUNNY   64  28  25 VRB7      30.46S
WASHINGTON DC  MOSUNNY   68  31  25 CALM      30.47F

$$



USA.gov is the U.S. government's official web portal to all federal, state and local government web resources and services.